Volver al catálogo

COSMOS 1249 COOLANT

ActivoLEO
NORAD 26911·DEBRIS·🇷🇺 Russia

Lanzado Mar 5, 1981 desde Baikonur Cosmodrome

Loading…

Próximos Pases (próximas 24 horas)

TLE

ActualizadoSource: Space-Track

Época: Sep 14, 2026, 06:13 UTC

1 26911U 81021Q   26257.25951322  .00000040  00000-0  10069-3 0  9995
2 26911  64.9611  74.5678 0060420 229.5427 306.4012 13.91915103670099

Sigue COSMOS 1249 COOLANT en tiempo real con AllMySat

Download on the App Store